Location: 22
(39.7117°N, 89.5929°W)
Time: 08:58:26
(UTC-06:00)

Altair - Visible Passes

Search period start: 29 January 2023 00:00
Search period end: 08 February 2023 00:00
Orbit: 1501 x 1683 km, 47.2° (Epoch: 28 January)

Date Brightness Start Highest point End Pass type
(mag) Time Alt. Az. Time Alt. Az. Time Alt. Az.
29 Jan 8.4 03:38:45 35° SSE 03:38:45 35° SSE 03:44:09 10° SSE visible
29 Jan 8.9 05:36:49 15° WSW 05:37:37 15° WSW 05:42:31 10° SSW visible
29 Jan 8.2 18:40:02 10° SSW 18:48:22 35° SE 18:52:25 26° E visible
29 Jan 7.7 20:42:37 10° WSW 20:50:28 64° WSW 20:50:28 64° WSW visible
29 Jan 9.8 22:48:20 10° W 22:48:32 11° W 22:48:32 11° W visible
30 Jan 8.9 03:15:32 25° SSE 03:15:32 25° SSE 03:19:05 10° SE visible
30 Jan 8.9 05:13:37 17° SW 05:13:37 17° SW 05:18:18 10° SSW visible
30 Jan 8.3 18:15:13 10° S 18:23:16 32° SE 18:29:05 18° E visible
30 Jan 7.4 20:17:26 10° WSW 20:27:08 87° SSE 20:27:08 87° SSE visible
30 Jan 9.4 22:23:01 10° W 22:25:11 19° W 22:25:11 19° W visible
31 Jan 9.3 02:52:21 16° SE 02:52:21 16° SE 02:54:00 10° SE visible
31 Jan 9.0 04:50:25 17° SW 04:50:25 17° SW 04:53:54 10° SSW visible
31 Jan 8.4 17:50:28 10° S 17:58:11 29° SE 18:05:42 11° ENE visible
31 Jan 7.4 19:52:17 10° SW 20:01:58 83° SSE 20:03:45 65° ENE visible
31 Jan 8.9 21:57:43 10° W 22:01:48 28° WNW 22:01:48 28° WNW visible
01 Feb 9.1 04:27:15 15° SSW 04:27:15 15° SSW 04:29:23 10° S visible
01 Feb 7.5 19:27:08 10° SW 19:36:46 78° SE 19:40:18 46° ENE visible
01 Feb 8.5 21:32:25 10° W 21:38:21 40° WNW 21:38:21 40° WNW visible
02 Feb 9.4 04:04:05 12° S 04:04:05 12° S 04:04:47 10° S visible
02 Feb 7.5 19:02:01 10° SW 19:11:35 74° SE 19:16:48 33° ENE visible
02 Feb 8.0 21:07:08 10° W 21:14:51 53° NW 21:14:51 53° NW visible
03 Feb 7.6 18:36:56 10° SW 18:46:24 69° SE 18:53:16 23° ENE visible
03 Feb 7.7 20:41:50 10° W 20:51:18 63° NNW 20:51:18 63° NNW visible
03 Feb 9.5 22:47:51 10° WNW 22:49:20 16° WNW 22:49:20 16° WNW visible
04 Feb 7.7 18:11:51 10° SW 18:21:13 65° SE 18:29:41 15° ENE visible
04 Feb 7.7 20:16:34 10° W 20:26:14 65° NNW 20:27:42 59° NNE visible
04 Feb 9.2 22:22:35 10° WNW 22:25:44 23° WNW 22:25:44 23° WNW visible
05 Feb 7.8 17:46:49 10° SW 17:56:04 60° SE 18:05:43 10° ENE visible
05 Feb 7.7 19:51:18 10° W 20:00:56 67° NNW 20:04:04 47° NE visible
05 Feb 8.8 21:57:18 10° WNW 22:02:06 32° WNW 22:02:06 32° WNW visible
06 Feb 7.7 19:26:03 10° WSW 19:35:40 69° NNW 19:40:24 36° NE visible
06 Feb 8.4 21:32:02 10° WNW 21:38:26 42° NW 21:38:26 42° NW visible
07 Feb 7.7 19:00:48 10° WSW 19:10:23 72° NNW 19:16:42 26° ENE visible
07 Feb 8.1 21:06:45 10° WNW 21:14:43 51° NNW 21:14:43 51° NNW visible
07 Feb 9.7 23:12:10 10° WNW 23:12:44 12° WNW 23:12:44 12° WNW visible
